Skip Page Navigation
NASA JPL Caltech
NASA Logo - Jet Propulsion Laboratory + View the NASA Portal
+ Center for Near-Earth Object Studies
JPL Home Earth Solar System Stars & Galaxies Technology
JPL Solar System Dynamics
BODIES ORBITS EPHEMERIDES TOOLS PHYSICAL DATA DISCOVERY FAQ SITE MAP
IMPORTANT: The SSD Announcement email list is now available. Major changes are coming in the near future, including possible hostname and/or URL changes. To be notified of such changes, subscribe to this email list.

Please visit this page for more details.


JPL Small-Body Database Browser
Search: [ help ]  
46355 (2001 TQ65)
Classification: Outer Main-belt Asteroid          SPK-ID: 2046355
Ephemeris | Orbit Diagram | Orbital Elements | Mission Design | Physical Parameters | Discovery Circumstances | Close-Approach Data ]

[ show orbit diagram ]
Orbital Elements at Epoch 2459000.5 (2020-May-31.0) TDB
Reference: JPL 26 (heliocentric ecliptic J2000)
 Element Value Uncertainty (1-sigma)   Units 
e .09790985973787908 3.9601e-08  
a 3.250978441462204 2.3037e-08 au
q 2.932675598247771 1.2313e-07 au
i 7.706186049896463 5.4345e-06 deg
node 37.16998225254164 3.2208e-05 deg
peri 255.9623688006238 4.3414e-05 deg
M 155.9249477542693 3.0304e-05 deg
tp 2458073.173506620920
(2017-Nov-15.67350662)
0.00017851 TDB
period 2141.014266316008
5.86
2.2757e-05
6.231e-08
d
yr
n .1681446058831936 1.7872e-09 deg/d
Q 3.569281284676638 2.5292e-08 au
  Orbit Determination Parameters
   # obs. used (total)      1206  
   data-arc span      10225 days (27.99 yr)  
   first obs. used      1992-01-29  
   last obs. used      2020-01-27  
   planetary ephem.      DE431  
   SB-pert. ephem.      SB431-N16  
   condition code      0  
   norm. resid. RMS      .54251  
   source      ORB  
   producer      Otto Matic  
   solution date      2020-Feb-23 08:26:38  

Additional Information
 Earth MOID = 1.92953 au 
 Jupiter MOID = 1.62956 au 
 T_jup = 3.160 
[ show covariance matrix ]

Ephemeris | Orbit Diagram | Orbital Elements | Mission Design | Physical Parameters | Discovery Circumstances | Close-Approach Data ]

Physical Parameter Table
Parameter Symbol Value Units Sigma Reference Notes
absolute magnitude H 13.7   n/a MPO337629  
diameter diameter 9.684 km 0.163 urn:nasa:pds:neowise_diameters_albedos::2.0[mainbelt] (http://adsabs.harvard.edu/abs/2011ApJ...741...68M)  
geometric albedo albedo 0.062   0.003 urn:nasa:pds:neowise_diameters_albedos::2.0[mainbelt] (http://adsabs.harvard.edu/abs/2011ApJ...741...68M)  

46355 (2001 TQ65)          Discovered 2001-Oct-13 by LINEAR at Socorro
Reference: 20020822/Numbers.arcLast Updated: 2004-04-19

[ show close-approach data ]
Alternate Designations
 2001 TQ65 = 1999 JS25 
Ephemeris | Orbit Diagram | Orbital Elements | Mission Design | Physical Parameters | Discovery Circumstances | Close-Approach Data ]
ABOUT SSD CREDITS/AWARDS PRIVACY/COPYRIGHT GLOSSARY LINKS
FirstGov 2020-Jun-05 15:03 UT
(server date/time)  
NASA Home Page
Site Manager:   Ryan S. Park
Webmaster  Alan B. Chamberlin